COSMOS 2474 (742)

Last updated on Tue Jun 16 2020 05:15:31 GMT+0000 (Coordinated Universal Time)

1 37829U 11055A 20167.57168714 .00000083 00000-0 00000-0 0 9997 2 37829 64.5481 147.1815 0010578 250.0050 50.6227 2.13101708 67737
UTC large
Height (km)
Speed (km/s)
/
Latitude / Longitude
Inclination (degrees)
Orbital Period (minutes)
Azimuth
Elevation
Range (km)
Doppler Factor

Next 0 passes for location: London (51.5072 / 0.1276)

Sorry there are no passes over London.